| time (UTC) | temp F | wind direction | speed knots | gust knots | rain 1hr in | rain 24hr in | rain mn in | humidity % | barometer mb |
| 20260906124552 | 64 | 78 | 0.0 | 1.7 | 0.00 | 0.74 | 0.00 | 97 | 1016.5 |
| 20260906123056 | 63 | 0 | 0.0 | 0.0 | 0.00 | 0.74 | 0.00 | 97 | 1016.4 |
| 20260906121548 | 63 | 0 | 0.0 | 1.7 | 0.00 | 0.74 | 0.00 | 97 | 1016.2 |
| 20260906120115 | 63 | 0 | 0.0 | 0.0 | 0.00 | 0.74 | 0.00 | 97 | 1016.1 |
| 20260906114552 | 62 | 0 | 0.0 | 0.0 | 0.00 | 0.74 | 0.00 | 97 | 1016.0 |
| 20260906113100 | 62 | 0 | 0.0 | 0.0 | 0.00 | 0.74 | 0.00 | 96 | 1016.0 |
| 20260906111550 | 62 | 0 | 0.0 | 0.0 | 0.00 | 0.74 | 0.00 | 96 | 1015.8 |
| 20260906110051 | 62 | 0 | 0.0 | 1.7 | 0.00 | 0.74 | 0.00 | 96 | 1015.4 |
| 20260906104553 | 62 | 0 | 0.0 | 1.7 | 0.00 | 0.74 | 0.00 | 96 | 1015.3 |
| 20260906103112 | 62 | 118 | 0.9 | 2.6 | 0.00 | 0.74 | 0.00 | 96 | 1015.2 |
| 20260906101547 | 63 | 76 | 0.9 | 3.5 | 0.00 | 0.74 | 0.00 | 96 | 1015.0 |
| 20260906100105 | 63 | 77 | 0.0 | 2.6 | 0.00 | 0.74 | 0.00 | 96 | 1015.0 |
| 20260906094550 | 63 | 77 | 0.0 | 1.7 | 0.00 | 0.74 | 0.00 | 96 | 1015.0 |
| 20260906093107 | 63 | 0 | 0.0 | 1.7 | 0.00 | 0.74 | 0.00 | 96 | 1014.8 |
| 20260906091548 | 63 | 0 | 0.0 | 1.7 | 0.00 | 0.74 | 0.00 | 96 | 1014.9 |
| 20260906090059 | 63 | 0 | 0.0 | 0.9 | 0.00 | 0.74 | 0.00 | 96 | 1015.0 |
| 20260906084550 | 63 | 0 | 0.0 | 0.9 | 0.00 | 0.75 | 0.00 | 96 | 1015.2 |
| 20260906083048 | 63 | 0 | 0.0 | 0.9 | 0.00 | 0.75 | 0.00 | 96 | 1015.1 |
| 20260906081553 | 63 | 0 | 0.0 | 0.0 | 0.00 | 0.75 | 0.00 | 96 | 1015.0 |
| 20260906080120 | 63 | 0 | 0.0 | 0.9 | 0.00 | 0.75 | 0.00 | 96 | 1014.7 |
| 20260906074604 | 63 | 0 | 0.0 | 1.7 | 0.00 | 0.75 | 0.00 | 95 | 1014.5 |
| 20260906073105 | 63 | 0 | 0.9 | 2.6 | 0.00 | 0.75 | 0.00 | 95 | 1014.5 |
| 20260906071548 | 64 | 0 | 0.9 | 2.6 | 0.00 | 0.75 | 0.00 | 95 | 1014.4 |
| 20260906070047 | 64 | 0 | 0.0 | 1.7 | 0.00 | 0.75 | 0.00 | 95 | 1014.7 |
| 20260906064552 | 64 | 261 | 0.0 | 0.9 | 0.00 | 0.75 | 0.00 | 95 | 1014.6 |
| 20260906063051 | 64 | 0 | 0.0 | 0.9 | 0.00 | 0.75 | 0.00 | 95 | 1014.9 |
| 20260906061549 | 64 | 0 | 0.0 | 1.7 | 0.00 | 0.75 | 0.00 | 95 | 1014.9 |
| 20260906060046 | 64 | 260 | 0.0 | 2.6 | 0.00 | 0.75 | 0.00 | 95 | 1015.0 |
| 20260906054551 | 64 | 51 | 0.0 | 1.7 | 0.00 | 0.75 | 0.00 | 95 | 1015.0 |
| 20260906053051 | 64 | 0 | 0.0 | 0.0 | 0.00 | 0.75 | 0.00 | 94 | 1014.9 |
| 20260906051559 | 64 | 0 | 0.0 | 1.7 | 0.00 | 0.75 | 0.00 | 94 | 1014.9 |
| 20260906044554 | 65 | 0 | 0.0 | 0.0 | 0.00 | 0.75 | 0.00 | 94 | 1015.2 |
| 20260906043057 | 66 | 82 | 0.9 | 2.6 | 0.00 | 0.75 | 0.00 | 94 | 1015.2 |
| 20260906041546 | 66 | 138 | 0.9 | 1.7 | 0.00 | 0.75 | 0.00 | 94 | 1015.3 |
| 20260906040056 | 66 | 0 | 0.0 | 1.7 | 0.00 | 0.75 | 0.00 | 94 | 1015.5 |
| 20260906034608 | 66 | 183 | 0.0 | 0.9 | 0.00 | 0.88 | 0.75 | 94 | 1015.7 |
| 20260906033050 | 66 | 0 | 0.9 | 2.6 | 0.00 | 0.88 | 0.75 | 94 | 1016.0 |
| 20260906031549 | 66 | 0 | 0.0 | 0.9 | 0.00 | 0.88 | 0.75 | 94 | 1015.9 |
| 20260906030052 | 65 | 63 | 0.0 | 0.9 | 0.00 | 0.88 | 0.75 | 94 | 1016.0 |
| 20260906024549 | 66 | 0 | 0.0 | 2.6 | 0.00 | 0.88 | 0.75 | 94 | 1015.8 |
| 20260906023047 | 65 | 0 | 0.0 | 0.0 | 0.00 | 0.88 | 0.75 | 93 | 1015.9 |
| 20260906021549 | 66 | 0 | 0.0 | 1.7 | 0.00 | 0.88 | 0.75 | 92 | 1015.9 |
| 20260906020059 | 66 | 136 | 0.0 | 1.7 | 0.00 | 0.88 | 0.75 | 92 | 1015.6 |
| 20260906014555 | 66 | 0 | 0.0 | 0.0 | 0.00 | 0.88 | 0.75 | 92 | 1015.5 |
| 20260906013103 | 67 | 0 | 0.0 | 1.7 | 0.00 | 0.88 | 0.75 | 92 | 1015.4 |
| 20260906011551 | 67 | 87 | 0.9 | 1.7 | 0.00 | 0.88 | 0.75 | 91 | 1015.2 |
| 20260906010053 | 68 | 0 | 0.0 | 1.7 | 0.00 | 0.88 | 0.75 | 90 | 1014.6 |
| 20260906004545 | 69 | 241 | 0.9 | 1.7 | 0.00 | 0.88 | 0.75 | 88 | 1014.5 |
| 20260906003053 | 70 | 0 | 0.0 | 0.0 | 0.00 | 0.88 | 0.75 | 87 | 1014.5 |
| 20260906001550 | 71 | 0 | 0.0 | 0.9 | 0.00 | 0.88 | 0.75 | 85 | 1014.6 |
| 20260906000101 | 72 | 0 | 0.0 | 0.9 | 0.00 | 0.88 | 0.75 | 84 | 1014.6 |
| 20260905234619 | 73 | 241 | 0.9 | 2.6 | 0.00 | 0.88 | 0.75 | 82 | 1014.7 |
| 20260905233053 | 74 | 268 | 1.7 | 2.6 | 0.00 | 0.88 | 0.75 | 79 | 1014.6 |
| 20260905231550 | 75 | 265 | 1.7 | 3.5 | 0.00 | 0.88 | 0.75 | 77 | 1014.7 |
| 20260905230054 | 76 | 257 | 1.7 | 4.3 | 0.00 | 0.88 | 0.75 | 75 | 1014.6 |
| 20260905224552 | 76 | 261 | 0.9 | 5.2 | 0.00 | 0.88 | 0.75 | 74 | 1015.0 |
| 20260905223051 | 76 | 282 | 1.7 | 7.8 | 0.00 | 0.88 | 0.75 | 72 | 1015.0 |
| 20260905221545 | 77 | 344 | 2.6 | 5.2 | 0.00 | 0.88 | 0.75 | 70 | 1014.9 |
| 20260905214549 | 78 | 355 | 1.7 | 7.0 | 0.00 | 0.91 | 0.75 | 68 | 1014.7 |
| 20260905213049 | 78 | 336 | 3.5 | 7.0 | 0.00 | 0.91 | 0.75 | 69 | 1014.4 |
| 20260905211548 | 78 | 338 | 2.6 | 9.6 | 0.00 | 0.91 | 0.75 | 69 | 1014.4 |
| 20260905210105 | 78 | 291 | 2.6 | 8.7 | 0.00 | 0.91 | 0.75 | 69 | 1014.3 |
| 20260905204554 | 78 | 330 | 3.5 | 7.0 | 0.00 | 1.25 | 0.75 | 69 | 1014.2 |
| 20260905203106 | 78 | 306 | 4.3 | 7.8 | 0.00 | 1.25 | 0.75 | 69 | 1014.2 |
| 20260905201545 | 78 | 339 | 2.6 | 7.8 | 0.00 | 1.25 | 0.75 | 67 | 1014.0 |
| 20260905200054 | 79 | 329 | 1.7 | 5.2 | 0.00 | 1.25 | 0.75 | 72 | 1014.2 |
| 20260905194550 | 78 | 252 | 3.5 | 7.8 | 0.00 | 1.25 | 0.75 | 69 | 1014.4 |
| 20260905193044 | 78 | 302 | 1.7 | 7.8 | 0.00 | 1.25 | 0.75 | 70 | 1014.5 |
| 20260905191556 | 78 | 282 | 0.9 | 7.0 | 0.00 | 1.25 | 0.75 | 72 | 1014.9 |
| 20260905190054 | 77 | 263 | 4.3 | 8.7 | 0.00 | 1.25 | 0.75 | 71 | 1015.3 |
| 20260905184555 | 77 | 282 | 2.6 | 7.0 | 0.00 | 1.25 | 0.75 | 72 | 1015.7 |
| 20260905183048 | 77 | 0 | 0.9 | 4.3 | 0.00 | 1.25 | 0.75 | 73 | 1015.6 |
| 20260905181555 | 76 | 15 | 1.7 | 5.2 | 0.00 | 1.25 | 0.75 | 75 | 1015.6 |
| 20260905180052 | 76 | 80 | 1.7 | 7.0 | 0.00 | 1.25 | 0.75 | 75 | 1015.8 |
| 20260905174551 | 75 | 334 | 2.6 | 9.6 | 0.00 | 1.25 | 0.75 | 76 | 1016.2 |
| 20260905173048 | 76 | 338 | 0.9 | 7.8 | 0.00 | 1.25 | 0.75 | 80 | 1016.2 |
| 20260905171556 | 75 | 261 | 3.5 | 7.0 | 0.00 | 1.25 | 0.75 | 80 | 1016.5 |
| 20260905170101 | 74 | 238 | 2.6 | 4.3 | 0.00 | 1.25 | 0.75 | 83 | 1016.4 |
| 20260905164552 | 73 | 297 | 2.6 | 9.6 | 0.00 | 1.25 | 0.75 | 84 | 1016.8 |
| 20260905163053 | 72 | 290 | 1.7 | 4.3 | 0.00 | 1.25 | 0.75 | 85 | 1016.8 |
| 20260905161557 | 71 | 285 | 0.9 | 3.5 | 0.00 | 1.25 | 0.75 | 88 | 1016.7 |
| 20260905154613 | 70 | 236 | 0.9 | 4.3 | 0.00 | 1.25 | 0.75 | 93 | 1016.1 |
| 20260905153049 | 68 | 0 | 0.9 | 5.2 | 0.00 | 1.25 | 0.75 | 96 | 1016.1 |
| 20260905151555 | 66 | 85 | 0.9 | 4.3 | 0.02 | 1.25 | 0.75 | 95 | 1015.8 |
| 20260905144549 | 66 | 102 | 0.9 | 3.5 | 0.02 | 1.25 | 0.75 | 95 | 1016.7 |
| 20260905143056 | 65 | 215 | 0.0 | 2.6 | 0.03 | 1.25 | 0.75 | 96 | 1017.5 |
| 20260905141554 | 65 | 0 | 0.0 | 2.6 | 0.02 | 1.23 | 0.73 | 96 | 1017.5 |
| 20260905140050 | 65 | 0 | 0.0 | 1.7 | 0.09 | 1.23 | 0.73 | 95 | 1017.6 |
| 20260905134549 | 64 | 74 | 0.9 | 6.1 | 0.13 | 1.23 | 0.73 | 95 | 1017.6 |
| 20260905133048 | 65 | 98 | 0.9 | 3.5 | 0.71 | 1.22 | 0.72 | 95 | 1017.8 |
| 20260905131544 | 64 | 93 | 1.7 | 10.4 | 0.70 | 1.21 | 0.71 | 95 | 1017.6 |
| 20260905130051 | 64 | 344 | 2.6 | 10.4 | 0.63 | 1.14 | 0.64 | 95 | 1017.8 |